Regional Weather Roundup
Issued by NWS

Home | Current Version | Previous Version | Text Only | Print | Product List | Glossary Off
Versions: 1 2 3 4 5 6 7 8 9 10 11 12 13 14 15 16 17 18 19 20 21 22 23 24 25 26 27 28 29 30 31 32 33 34 35 36 37 38 39 40 41 42 43 44 45 46 47 48 49 50

000
ASUS45 KTFX 030010
RWRMT
MONTANA REGIONAL WEATHER ROUNDUP
NATIONAL WEATHER SERVICE GREAT FALLS MT
600 PM MDT MON MAY 02 2016

NOTE: "FAIR" INDICATES FEW OR NO CLOUDS BELOW 12000 FEET WITH NO
SIGNIFICANT WEATHER AND/OR OBSTRUCTIONS TO VISIBILITY.

MTZ001>007-043-030100-
WEST OF THE DIVIDE

CITY           SKY/WX    TMP DP  RH WIND       PRES   REMARKS
KALISPELL      SUNNY     73  39  29 S8        30.07F
MISSOULA       SUNNY     76  24  14 CALM      30.08F
BUTTE          SUNNY     68  20  16 N9        30.16S
MULLAN PASS    SUNNY     62  25  24 CALM      30.20S
$$

MTZ008-052>055-030100-
SOUTHWEST MONTANA

CITY           SKY/WX    TMP DP  RH WIND       PRES   REMARKS
BOZEMAN        SUNNY     69  25  19 NW5       30.13F
DILLON         SUNNY     69  22  16 NE6       30.14S
ENNIS          SUNNY     66  16  14 NW9       30.20S
$$

MTZ009-010-012-014-046-048-049-054-030100-
EAST SLOPES AND CENTRAL MONTANA

CITY           SKY/WX    TMP DP  RH WIND       PRES   REMARKS
CUT BANK       SUNNY     73  25  16 CALM      30.09F
GREAT FALLS    SUNNY     72  28  19 VRB3      30.10S
MALMSTROM AFB  SUNNY     70  30  22 NE2       30.10F
HELENA         SUNNY     75  27  17 N5        30.10S
$$

MTZ011-013-016-021-045-047-050-051-030100-
NORTH CENTRAL MONTANA

CITY           SKY/WX    TMP DP  RH WIND       PRES   REMARKS
HAVRE          SUNNY     75  39  27 CALM      30.07S
LEWISTOWN      SUNNY     69  31  24 N3        30.13F
N BAR RANCH      N/A     66  34  30 N10       30.16R
$$

MTZ017>020-022>027-061-062-030100-
NORTHEAST MONTANA

CITY           SKY/WX    TMP DP  RH WIND       PRES   REMARKS
GLASGOW        SUNNY     77  36  22 N13       30.00F
JORDAN           N/A     72  40  31 NW14      30.05S
SIDNEY         SUNNY     72  32  23 NE15      29.99R
WOLF POINT     SUNNY     79  36  21 NE12      29.98R
$$

MTZ028>42-056>058-030100-
SOUTHCENTRAL AND SOUTHEAST MONTANA

CITY           SKY/WX    TMP DP  RH WIND       PRES   REMARKS
BAKER          MOSUNNY   69  33  26 N14G22    30.01S
BILLINGS       MOSUNNY   70  31  23 NE6       30.11S
LIVINGSTON     SUNNY     70  21  15 VRB3      30.11F
MILES CITY     MOSUNNY   72  35  25 NW17G23   30.04S
$$

REGIONAL REPORTS...DAKOTAS

CITY           SKY/WX    TMP DP  RH WIND       PRES   REMARKS
WILLISTON      SUNNY     73  26  17 N13       29.99R
MINOT          SUNNY     72  33  24 NE8       29.97S
DICKINSON      SUNNY     65  31  28 NE16      29.98R
BEACH            N/A     68  27  21 NE21      30.03S
CROSBY           N/A     72  23  16 N6        30.00S
TIOGA            N/A     68  28  22 NE6       30.04S
WATFORD CITY     N/A     70  32  24 NE9       30.00R
BISMARCK       SUNNY     64  41  42 NE8       29.97S
GRAND FORKS    PTSUNNY   70  30  22 CALM      29.94S
FARGO          MOSUNNY   69  31  24 S3        29.95S
BUFFALO SD       N/A     69  30  23 N25G36    29.92R
RAPID CITY     LGT RAIN  56  43  61 N12       29.98F
$$

REGIONAL REPORTS...WYOMING/IDAHO/WASHINGTON

CITY           SKY/WX    TMP DP  RH WIND       PRES   REMARKS
GILLETTE       CLOUDY    60  34  37 N17       30.11R
SHERIDAN       SUNNY     65  32  29 N18       30.11S
BUFFALO WY       N/A    N/A N/A N/A MISG      30.13S
CODY           SUNNY     63  27  25 N10       30.15R
YELLOWSTONE LA   N/A     52  16  24 VRB3      30.26S
IDAHO FALLS    SUNNY     66  18  15 SW3       30.17S
SALMON         SUNNY     72  27  18 N5        30.06F
BOISE          SUNNY     74  24  15 SE7G16    30.07F
SPOKANE        MOSUNNY   78  36  21 N7        30.05F
$$

REGIONAL REPORTS...ALBERTA

CITY           SKY/WX    TMP DP  RH WIND       PRES   REMARKS
EDMONTON       MOSUNNY   81  37  21 S3        29.96F
CALGARY        PTSUNNY   77  27  15 S8G20     30.02F
LETHBRIDGE     MOSUNNY   77  34  20 S14G31    30.04F
MEDICINE HAT   MOSUNNY   77  37  24 VRB5      30.03F
WATERTON GATE    N/A     73  25  16 SW13        N/A
CARDSTON         N/A     79  28  15 SW2         N/A
MILK RIVER       N/A     73  34  23 S1          N/A
ONEFOUR          N/A     72  34  25 W2          N/A
$$

REGIONAL REPORTS...SASKATCHEWAN

CITY           SKY/WX    TMP DP  RH WIND       PRES   REMARKS
SWIFT CURRENT  SUNNY     75  36  23 NE14      30.02F
REGINA         PTSUNNY   73  30  20 N13G21    29.99S
SASKATOON      MOSUNNY   79  34  19 NE9       29.98F
CYPRESS HILLS    N/A     66  32  28 N3          N/A
VAL MARIE        N/A     75  34  22 N10         N/A
ROCKGLEN         N/A     70  32  24 N12G17      N/A
$$



USA.gov is the U.S. government's official web portal to all federal, state and local government web resources and services.